DECAYED

DMSP 5D-2 F13 DEB, 40495 (Decayed)

Orbit data source: Space-Track

DMSP 5D-2 F13 DEB, 40495 was space debris in SSO originally from a launch on Fri, 24 Mar 1995 UTC launched from the Air Force Western Test Range (AFWTR). Debris objects in space refer to the collection of defunct objects orbiting the Earth. Examples of debris include non-operational satellites, rocket bodies, and fragments generated from explosions, collisions, or faulty payload assembly.

Not visible in the next 10 days
Identifier
40495, 1995-015CJ
Orbit
Decayed
Last TLE update
3 months ago
Origin
Manufacturer
Unknown
Mission
Decayed spacecraft
Bus & Motor
Unknown
Mass
Unknown
Launch date (UTC)
1995-03-24 (30 years ago)
Launch vehicle
Unknown
Launch site
Air Force Western Test Range (AFWTR)
Object type
Payload
Rocket body
Debris
Shape & HBR
Unknown
Radar Cross Section
Small (<0.1 m²)

Expand to show TLE details & history

TLE from 3 months ago
0 DMSP 5D-2 F13 DEB
1 40495U 95015CJ  25078.53076680  .02037170  00000-0  36223-1 0  9996
2 40495  98.5342 193.4504 0018569 263.2824  96.6309 15.46696102527396
Epoch: 2025-03-19T12:44Z
TLE epoch observation values (Epoch: 2025-03-19T12:44:18.251Z)
Latitude
-0.00002°
Longitude
-174.94321°
Altitude
430.973 km
Speed
7.652 km/s
True Right ascension
12h 53m 48s
True Declination
0° 00' 00"
Sunlit
Object was in full shadow at epoch
Visualization orbit readout
Visualization observer readout
Orbital elements
Apogee altitude
436.011 km
Perigee altitude
410.752 km
Semi-major axis
6,801.519 km
Eccentricity
0.00186
Inclination
98.5342°
RAAN
193.4504°
Arg. of periapsis
263.2824°
True anomaly
Unknown
Mean anomaly
96.6309°
Eccentric anomaly
Unknown
Mean motion
3.86932 °/min
Orbital period
93.04 mins
BSTAR
0.036223
Loading maneuver chart data...
Loading SW <> Apogee altitude chart data...

DMSP 5D-2 F13 DEB Visibility

Observer location: undefined°, undefined°

This satellite is decayed
Span
Click to sort rows by Start time (UTC) header in descending order
Start Az.
Max El. time (UTC)
Max El. Az.
Max El.
End time (UTC)
End Az.
|